Weather History for CWSP - November, 2012

Change the Weather History Date:

Monday, November 5, 2012

  Actual Average Record
Temperature  
Mean Temperature 50 °F -  
Max Temperature 53 °F - - ()
Min Temperature 46 °F - - ()
Degree Days  
Heating Degree Days 16    
Moisture  
Dew Point 46 °F    
Average Humidity 88    
Maximum Humidity 93    
Minimum Humidity 76    
Precipitation  
Precipitation 0.00 in - - ()
Sea Level Pressure  
Sea Level Pressure 30.34 in    
Wind  
Wind Speed 6 mph ()    
Max Wind Speed 15 mph    
Max Gust Speed -    
T = Trace of Precipitation, MM = Missing Value Source: Averaged Metar Reports

Daily Weather History Graph

Daily Weather History Graph

Search for Another Location

Airport or City:

Trip Planner

Search our weather history database for the weather conditions in past years. The results will help you decide how hot, cold, wet, or windy it might be!

Date:

Astronomy

Nov. 05, 2012 Rise Set
Actual Time 7:08 AM PST 4:49 PM PST
Civil Twilight 6:35 AM PST 5:22 PM PST
Nautical Twilight 5:58 AM PST 5:59 PM PST
Astronomical Twilight 5:21 AM PST 6:36 PM PST
Moon 10:33 PM PST (11/5) 12:31 PM PST (11/5)
Length of Visible Light 10h 46m
Length of Day
9h 40m
Waning Gibbous, 62% of the Moon is Illuminated
Nov 5
Waning Gibbous
Nov 6
Last Quarter
Nov 13
New
Nov 20
First Quarter
Nov 28
Full

Hourly Weather History & Observations

Time (PST) Temp. Dew Point Humidity Pressure Visibility Wind Dir Wind Speed Gust Speed Precip Events Conditions
12:00 AM 51.1 °F 48.9 °F 92% 30.32 in - West 15.0 mph - N/A   Unknown
1:00 AM 51.4 °F 49.3 °F 92% 30.34 in - WNW 11.5 mph - N/A   Unknown
2:00 AM 50.9 °F 48.6 °F 92% 30.37 in - WNW 4.6 mph - N/A   Unknown
3:00 AM 49.5 °F 47.5 °F 93% 30.39 in - Calm Calm - N/A   Unknown
4:00 AM 51 °F 47 °F 83% 30.40 in - Calm Calm - -  
4:00 AM 50.7 °F 47.5 °F 89% 30.40 in - Calm Calm - N/A   Unknown
5:00 AM 50.0 °F 47.1 °F 90% 30.40 in - Calm Calm - N/A   Unknown
6:00 AM 49.8 °F 46.8 °F 89% 30.41 in - WNW 3.5 mph - N/A   Unknown
7:00 AM 50.4 °F 47.1 °F 89% 30.40 in - NW 5.8 mph - N/A   Unknown
8:00 AM 50.0 °F 47.1 °F 90% 30.40 in - WNW 8.1 mph - N/A   Unknown
9:00 AM 50.0 °F 46.4 °F 87% 30.40 in - WNW 9.2 mph - N/A   Unknown
10:00 AM 49 °F 47 °F 88% 30.39 in - WNW 13.8 mph - -  
10:00 AM 48.6 °F 46.6 °F 93% 30.39 in - WNW 13.8 mph - N/A   Unknown
11:00 AM 50.0 °F 46.4 °F 87% 30.39 in - WNW 9.2 mph - N/A   Unknown
12:00 PM 50.0 °F 46.2 °F 87% 30.40 in - West 12.7 mph - N/A   Unknown
1:00 PM 50.7 °F 46.6 °F 86% 30.37 in - West 12.7 mph - N/A   Unknown
3:00 PM 51.8 °F 48.4 °F 88% 30.37 in - Calm Calm - N/A   Unknown
4:00 PM 51 °F 47 °F 83% 30.35 in - Calm Calm - -  
4:00 PM 50.9 °F 47.5 °F 88% 30.35 in - Calm Calm - N/A   Unknown
5:00 PM 49.6 °F 46.9 °F 90% 30.35 in - WNW 1.2 mph - N/A   Unknown
6:00 PM 49.1 °F 46.4 °F 90% 30.32 in - East 1.2 mph - N/A   Unknown
7:00 PM 50.7 °F 43.3 °F 76% 30.28 in - East 3.5 mph - N/A   Unknown
8:00 PM 48.2 °F 44.6 °F 87% 30.25 in - East 4.6 mph - N/A   Unknown
9:00 PM 47.5 °F 43.5 °F 86% 30.23 in - East 4.6 mph - N/A   Unknown
10:00 PM 47 °F 43 °F 81% 30.21 in - East 6.9 mph - -  
10:00 PM 46.6 °F 43.0 °F 87% 30.21 in - East 6.9 mph - N/A   Unknown
11:00 PM 47.5 °F 41.5 °F 80% 30.20 in - East 2.3 mph - N/A   Unknown